Location: Kosice
(0.0000°N, 21.2500°E)
Time: 05:05:29
(UTC+01:00)

SJ-11-01 - Pass Details

Date: 24 January 2021
Orbit: 684 x 700 km, 98.0° (Epoch: 04 March)

Event Time Altitude Azimuth Distance (km) Brightness Sun altitude
Rises 18:57:43 0° 171° (S) 3,077 7.8 -16.6°
Reaches altitude 10° 18:59:59 10° 172° (S) 2,156 7.0 -17.2°
Maximum altitude 19:04:42 78° 257° (WSW) 711 4.4 -18.3°
Drops below altitude 10° 19:09:23 10° 345° (NNW) 2,137 6.8 -19.4°
Sets 19:11:37 0° 346° (NNW) 3,048 7.6 -19.9°
